Preview of NWS' New Version of Forecast
This preview is not operational and should not be used for support decisions.
Latest weather observations around

Bremerton, Bremerton National Airport (KPWT)

Using English Units (Switch to International System of Units)
Date/ Time (PDT) Wind (mph) Vis. (mi) Weather Sky Cond. Temp (°F) Rel. Humidity Wind Chill (°F) Heat Index (°F) Pressure Precip. (in)
Air Dwpt 6 hour Altimeter (inHg) Sea level (inHg) 1 hr 3 hr 6 hr
Max Min
Jun 21 15:56 S 7 10 Cloudy OVC021 63 54     72%     30.15        
Jun 21 14:56 SW 7 10 Cloudy OVC021 64 54     70%     30.15 30.19      
Jun 21 13:56 SSW 11 10 Cloudy OVC019 62 54     75%     30.15 30.2      
Jun 21 12:56 SSW 9 10 Cloudy OVC017 61 54     78%     30.14 30.19      
Jun 21 11:56 S 8 10 Cloudy OVC019 61 53     75%     30.14 30.18      
Jun 21 11:04 SSW 11 10 Cloudy BKN015 OVC020 59 54     82%     30.13        
Jun 21 10:56 SSW 9 10 Cloudy BKN012 OVC020 59 54     83%     30.13 30.18      
Jun 21 09:56 SSW 11 10 Cloudy OVC010 58 54     87%     30.12 30.16      
Jun 21 09:35 SSW 11 10 Cloudy OVC010 57 54     88%     30.12        
Jun 21 08:56 S 11 10 Cloudy BKN006 OVC014 57 54     89%     30.11 30.15      
Jun 21 07:56 SW 9 10 Cloudy OVC008 56 54     93%     30.1 30.14      
Jun 21 06:56 SSW 10 10 Cloudy OVC008 56 53     90%     30.09 30.12      
Jun 21 06:05 SSW 10 10 Cloudy OVC008 55 54     94%     30.08        
Jun 21 05:56 SSW 8 10 Cloudy OVC010 56 53     90%     30.08 30.11      
Jun 21 05:20 SSW 8 10 Cloudy OVC010 57 54     88%     30.06        
Jun 21 04:56 SSW 11 10 Cloudy OVC008 57 53     87%     30.06 30.09      
Jun 21 04:39 SW 10 10 Cloudy OVC008 57 54     88%     30.05        
Jun 21 03:56 SSW 10 10 Cloudy OVC010 57 53     87%     30.04 30.08      
Jun 21 02:56 SSW 11 10 Cloudy OVC008 57 54     89%     30.03 30.06      
Jun 21 00:56 SSW 11 10 Cloudy OVC008 57 54     89%     30.01 30.05      
Jun 20 23:56 SSW 10 10 Cloudy OVC008 57 54     89%     29.99 30.02      
Jun 20 23:35 SSW 7 10 Mostly Cloudy BKN008 55 54     94%     29.98        
Jun 20 23:25 SSW 8 10 Partly Cloudy SCT008 57 55     94%     29.97        
Jun 20 22:56 SSW 7 10 Clear CLR 58 55     90%     29.97 30      
Jun 20 21:56 SSW 8 10 Clear CLR 62 56     80%     29.95 29.98      
Jun 20 20:56 SW 8 10 Clear CLR 69 59     70%     29.93 29.96      
Jun 20 19:56 ENE 5 10 Clear CLR 78 55     45%   78 29.91 29.94      
Jun 20 18:56 NE 11 10 Clear CLR 81 54     39%   81 29.91        
Jun 20 17:56 NE 10 10 Partly Cloudy SCT120 79 59     50%   79 29.9        
Jun 20 16:56   10 Clear CLR 81 60     49%   82 29.9 29.93      
Jun 20 15:56 NE 9 10 Clear CLR 84 63     49%   85 29.9 29.93      
Jun 20 14:56 Calm 10 Clear CLR 87 55     34%   85 29.91 29.94      
Jun 20 13:56 WSW 6 10 Clear CLR 85 57     39%   84 29.93 29.96      
Jun 20 12:56 Calm 10 Clear CLR 83 62     49%   84 29.94 29.97      
Jun 20 11:56 3 10 Clear CLR 82 61     49%   83 29.96 29.98      
Jun 20 10:56 SE 3 10 Clear CLR 76 61     60%   76 29.97 30      
Jun 20 09:56 E 5 10 Clear CLR 74 60     62%   74 29.97 30.01      
Jun 20 08:56 Calm 10 Clear CLR 73 58     59%   73 29.98 30.01      
Jun 20 07:56 Calm 10 Mostly Cloudy BKN110 67 58     73%     29.98 30.01      
Jun 20 06:56 Calm 10 Clear CLR 66 57     73%     29.98 30.01      
Jun 20 05:56 SSW 5 10 Clear CLR 60 56     86%     29.97 30      
Jun 20 04:56 Calm 10 Clear CLR 61 57     87%     29.97 30      
Jun 20 03:56 Calm 10 Clear CLR 63 58     84%     29.98        
Jun 20 02:56 NNE 3 10 Partly Cloudy SCT120 64 57     78%     29.98 30.01      
Jun 20 01:56 NNE 3 10 Clear CLR 66 57     73%     29.99 30.02      
Jun 20 00:56 Calm 10 Clear CLR 67 57     71%     30 30.03      
Jun 19 23:56 E 3 10 Clear CLR 67 58     73%     30.01        
Jun 19 22:56 Calm 10 Clear   65 57     76%     30.01        
Jun 19 21:56 Calm 10 Clear CLR 69 58     68%     30.01        
Jun 19 20:56 NE 3 10 Clear CLR 74 57     56%   74 30        
Jun 19 19:56 NE 8 10 Clear CLR 78 58     50%   78 30        
Jun 19 18:56 WSW 5 10 Clear CLR 83 59     44%   83 29.98 30.02      
Jun 19 17:56 Calm 10 Clear CLR 83 59     44%   83 29.99 30.02      
Jun 19 16:56 W 5 10 Clear CLR 83 59     44%   83 30.01 30.04      
Jun 19 15:56 3 10 Clear CLR 81 58     45%   81 30.02 30.06      
Jun 19 14:56 5 10 Clear CLR 81 58     45%   81 30.03 30.07      
Jun 19 13:56 WNW 6 10 Clear CLR 77 58     52%   77 30.04 30.08      
Jun 19 12:56 WNW 5 10 Clear CLR 73 56     55%   73 30.05        
Jun 19 11:56 3 10 Clear CLR 69 55     61%     30.06        
Jun 19 10:56 5 10 Clear CLR 66 55     68%     30.07        
Jun 19 09:56 5 10 Clear CLR 64 56     75%     30.08        
Jun 19 09:40 WSW 6 10 Partly Cloudy SCT012 63 55     77%     30.08        
Jun 19 09:24 6 10 Mostly Cloudy BKN012 61 55     82%     30.08        
Jun 19 08:56 SSW 7 10 Partly Cloudy SCT010 60 54     80%     30.08        
Jun 19 08:22 SW 8 10 Cloudy OVC010 59 54     82%     30.09        
Jun 19 07:56 SW 6 10 Cloudy OVC008 58 54     87%     30.08        
Jun 19 06:56 SW 6 10 Cloudy OVC006 57 55     93%     30.08 30.12      
Jun 19 05:56 SW 7 10 Cloudy OVC006 57 55     93%     30.07 30.11      
Jun 19 03:56 SSW 7 10 Cloudy OVC006 57 55     93%     30.05 30.09      
Jun 19 02:56 SSW 8 10 Clear   58 55     90%     30.04 30.07      
Jun 19 01:56 SW 9 10 Cloudy OVC008 58 56     93%     30.04 30.07      
Jun 19 00:56 SSW 3 10 Cloudy OVC008 58 56     93%     30.05        
Jun 19 00:37 SSW 5 10 Mostly Cloudy BKN010 57 55     94%     30.04        
Jun 18 23:56 SSW 5 10 Clear CLR 57 55     93%     30.03 30.07      
Jun 18 22:56 SW 7 10 Clear CLR 58 55     90%     30.02 30.06      
Jun 18 21:56 SSW 8 10 Clear CLR 61 56     83%     30 30.04      
Jun 18 20:56 SSW 8 10 Clear CLR 66 58     75%     29.98 30.02      
Jun 18 19:56 SW 10 10 Clear CLR 72 59     64%   72 29.97 30      
Jun 18 18:56 WSW 10 10 Clear CLR 77 60     56%   77 29.96 29.99      
Jun 18 17:56 SW 11 10 Clear CLR 82 59     46%   82 29.95        
Jun 18 16:56 SW 11 10 Clear CLR 85 60     43%   85 29.94        
Jun 18 15:56 SSW 6 10 Clear CLR 85 58     40%   84 29.94        
May 15 09:04 SW 8 10 Cloudy OVC007 55 52     88%     29.96        
May 14 08:56 Calm 10 Clear CLR 62 54     75%     29.97 30.01      
May 14 07:56 SSW 6 10 Clear CLR 58 54     87%     29.98        
Notice The following observation data may not be complete
May 13 20:56 Calm 10 Clear CLR   52      %     29.9        
May 13 12:56 NNE 7 10 Clear CLR 75 55     50%   75 29.95        
May 13 02:56 Calm 10 Clear CLR 47 44     90%     29.97 30.01      
May 12 17:56 ENE 9 10 Clear CLR 74 48     40%   73 29.99        
May 12 01:56 Calm 10 Clear CLR 45 45     100%     30.2        
May 12 00:56 Calm 10 Clear CLR 47 46     97%     30.2        
May 11 15:56 Calm 10 Mostly Cloudy BKN033 63 49     60%     30.23        
May 11 12:56 SSE 5 10 Cloudy BKN024 OVC028 57 49     74%     30.27 30.33      
May 11 07:56 Calm 10 Cloudy BKN019 OVC027 49 47     93%     30.27 30.32      
Jun 11 09:56 SSW 3 10 Cloudy OVC005 52 49     89%     30.06        
Jun 10 19:56 NNE 5 10 Clear CLR 62 45     53%     29.9 29.95      
Jun 10 15:56 WSW 3 10 Cloudy SCT046 OVC060 61 46     58%     29.86        
Notice The following observation data may not be complete
Jun 10 08:40   10 Cloudy OVC006          %              
Jun 10 02:15 WSW 7 10 Cloudy OVC004 48 46     93% 45   29.87        
Jun 09 16:56 SSW 8 10 Light Rain FEW026 58 46     65%     29.83 29.89 0   0
Jun 09 04:36 Calm 10 Cloudy SCT021 BKN028 OVC048 48 46     93%     29.93        
Jun 08 09:48 SSW 9 10 Light Rain BKN006 OVC030 55 54     94%     29.68   0    
Jun 08 04:56 SW 3 10 Light Rain SCT002 BKN010 OVC043 52 52     100%     29.64   0   0
Jun 07 09:56 Calm 10 Clear   67 49     52%     29.8        
Jun 06 02:56 E 5 10 Clear   54 43     66%     30.03        
Jun 05 16:56 ENE 9 10 Clear   71 39     31%   69 30.07